Nome, AK

3:10 AM AKDT on June 27, 2017 (GMT -0800)
Nome

Weather History for PAOM - September, 2012

Change the Weather History Date:

Saturday, September 1, 2012

  Actual Average Record
Temperature  
Mean Temperature 43 °F 48 °F  
Max Temperature 44 °F 54 °F 66 °F (2008)
Min Temperature 41 °F 42 °F 26 °F (1983)
Degree Days  
Heating Degree Days 22 17  
Month to date heating degree days 22 17  
Since 1 July heating degree days 927 877  
Cooling Degree Days 0 0  
Month to date cooling degree days 0 0  
Year to date cooling degree days 0 3  
Moisture  
Dew Point 40 °F    
Average Humidity 0    
Maximum Humidity 0    
Minimum Humidity 0    
Precipitation  
Precipitation 0.18 in 0.09 in 1.39 in (1942)
Month to date precipitation 0.18 0.09  
Year to date precipitation 14.86 10.54  
Snow  
Snow 0.00 in 0.00 in T in (1944)
Month to date snowfall 0.0 0.0  
Since 1 July snowfall 0.0 0.0  
Since 1 September snowfall 0.0 0.0  
Snow Depth 0.00 in    
Sea Level Pressure  
Sea Level Pressure 29.54 in    
Wind  
Wind Speed 11 mph (South)    
Max Wind Speed 16 mph    
Max Gust Speed 20 mph    
Visibility 8 miles    
Events Rain    
T = Trace of Precipitation, MM = Missing Value Source: NWS Daily Summary

Daily Weather History Graph

Daily Weather History Graph

Search for Another Location

Airport or City:

Trip Planner

Search our weather history database for the weather conditions in past years. The results will help you decide how hot, cold, wet, or windy it might be!

Date:

Astronomy

Sep. 01, 2012 Rise Set
Actual Time 7:45 AM AKDT 10:15 PM AKDT
Civil Twilight 6:51 AM AKDT 11:09 PM AKDT
Nautical Twilight 5:35 AM AKDT 12:23 AM AKDT
Astronomical Twilight 3:34 AM AKDT 2:28 AM AKDT
Moon 9:35 PM AKDT (9/1) 9:58 AM AKDT (9/1)
Length of Visible Light 16h 18m
Length of Day
14h 30m
Full, 98% of the Moon is Illuminated
Sep 1
Full
Sep 8
Last Quarter
Sep 15
New
Sep 22
First Quarter
Sep 29
Full

Hourly Weather History & Observations

Time (AKDT) Temp. Windchill Dew Point Humidity Pressure Visibility Wind Dir Wind Speed Gust Speed Precip Events Conditions
12:14 AM 42.8 °F 35.8 °F 41.0 °F 93% 29.51 in 6.0 mi SSW 13.8 mph - 0.01 in Rain Light Rain
12:53 AM 42.1 °F 36.6 °F 42.1 °F 100% 29.52 in 4.0 mi South 9.2 mph - 0.04 in Rain Rain
1:07 AM 42.8 °F 39.3 °F 41.0 °F 93% 29.51 in 5.0 mi SW 5.8 mph - 0.02 in Rain Light Rain
1:53 AM 43.0 °F 36.4 °F 39.9 °F 89% 29.52 in 10.0 mi WSW 12.7 mph - 0.07 in   Overcast
2:15 AM 42.8 °F 36.2 °F 39.2 °F 87% 29.51 in 10.0 mi WSW 12.7 mph - N/A   Overcast
2:53 AM 43.0 °F 36.4 °F 39.0 °F 86% 29.52 in 10.0 mi WSW 12.7 mph - N/A   Overcast
3:46 AM 42.8 °F 35.8 °F 37.4 °F 81% 29.52 in 10.0 mi SW 13.8 mph - N/A   Overcast
3:53 AM 43.0 °F 36.8 °F 39.0 °F 86% 29.52 in 10.0 mi SW 11.5 mph - N/A   Overcast
4:13 AM 42.8 °F 36.2 °F 39.2 °F 87% 29.52 in 10.0 mi SW 12.7 mph - N/A   Overcast
4:53 AM 42.1 °F 35.2 °F 39.0 °F 89% 29.52 in 10.0 mi SSW 12.7 mph - N/A   Overcast
5:51 AM 42.8 °F 36.2 °F 39.2 °F 87% 29.52 in 10.0 mi SSW 12.7 mph - N/A   Overcast
5:53 AM 42.1 °F 35.7 °F 39.0 °F 89% 29.53 in 10.0 mi SSW 11.5 mph - N/A   Overcast
6:01 AM 42.8 °F 36.6 °F 39.2 °F 87% 29.53 in 10.0 mi SSW 11.5 mph - N/A   Overcast
6:08 AM 42.8 °F 36.6 °F 39.2 °F 87% 29.52 in 10.0 mi SSW 11.5 mph - N/A   Overcast
6:53 AM 42.1 °F 36.1 °F 39.9 °F 92% 29.53 in 9.0 mi SSW 10.4 mph - 0.00 in Rain Light Rain
7:07 AM 42.8 °F 37.5 °F 39.2 °F 87% 29.52 in 4.0 mi South 9.2 mph - 0.00 in Rain Light Rain
7:31 AM 42.8 °F 37.0 °F 41.0 °F 93% 29.52 in 7.0 mi South 10.4 mph - 0.04 in Rain Light Rain
7:53 AM 42.1 °F 35.2 °F 39.9 °F 92% 29.53 in 10.0 mi SSW 12.7 mph - 0.04 in Rain Light Rain
8:33 AM 41.0 °F 33.1 °F 39.2 °F 93% 29.53 in 6.0 mi SSW 15.0 mph - 0.00 in   Overcast
8:53 AM 42.1 °F 35.2 °F 39.0 °F 89% 29.53 in 10.0 mi SSW 12.7 mph - 0.00 in   Overcast
9:30 AM 42.8 °F 36.6 °F 39.2 °F 87% 29.53 in 7.0 mi South 11.5 mph - N/A   Overcast
9:53 AM 42.1 °F 35.2 °F 39.0 °F 89% 29.54 in 7.0 mi South 12.7 mph - N/A   Overcast
10:53 AM 41.0 °F 33.9 °F 39.9 °F 96% 29.55 in 8.0 mi South 12.7 mph - 0.00 in Rain Light Rain
11:53 AM 42.1 °F 35.2 °F 39.9 °F 92% 29.55 in 6.0 mi South 12.7 mph - 0.01 in Rain Light Rain
12:53 PM 42.1 °F 36.6 °F 39.9 °F 92% 29.55 in 6.0 mi South 9.2 mph - 0.00 in Rain Light Rain
1:53 PM 42.1 °F 37.7 °F 39.9 °F 92% 29.55 in 8.0 mi South 6.9 mph - 0.00 in   Overcast
2:53 PM 42.1 °F 35.7 °F 39.9 °F 92% 29.56 in 8.0 mi South 11.5 mph - 0.00 in Rain Light Rain
3:19 PM 42.8 °F 37.0 °F 39.2 °F 87% 29.55 in 9.0 mi South 10.4 mph - 0.00 in Rain Light Rain
3:33 PM 42.8 °F 36.6 °F 39.2 °F 87% 29.57 in 8.0 mi South 11.5 mph - 0.00 in   Overcast
3:53 PM 42.1 °F 36.6 °F 39.9 °F 92% 29.57 in 8.0 mi South 9.2 mph - 0.00 in Rain Light Rain
4:53 PM 43.0 °F 38.2 °F 39.9 °F 89% 29.57 in 10.0 mi South 8.1 mph - 0.00 in   Overcast
5:53 PM 43.0 °F 36.4 °F 39.9 °F 89% 29.57 in 10.0 mi SSE 12.7 mph - 0.00 in Rain Light Rain
6:53 PM 43.0 °F 37.2 °F 39.9 °F 89% 29.57 in 4.0 mi SSE 10.4 mph - 0.03 in Rain Light Rain
7:53 PM 43.0 °F 37.7 °F 41.0 °F 93% 29.57 in 9.0 mi SSE 9.2 mph - 0.02 in Rain Light Rain
8:44 PM 42.8 °F 37.5 °F 41.0 °F 93% 29.58 in 10.0 mi South 9.2 mph - N/A Rain Light Rain
8:53 PM 43.0 °F 37.2 °F 39.9 °F 89% 29.57 in 8.0 mi SSE 10.4 mph - 0.00 in Rain Light Rain
9:53 PM 43.0 °F 38.2 °F 39.9 °F 89% 29.58 in 10.0 mi SE 8.1 mph - 0.01 in Rain Light Rain
10:53 PM 43.0 °F 37.2 °F 39.9 °F 89% 29.57 in 10.0 mi SE 10.4 mph - 0.00 in   Overcast
11:39 PM 44.6 °F 40.7 °F 39.2 °F 81% 29.58 in 10.0 mi ESE 6.9 mph - 0.00 in Rain Light Rain
11:53 PM 42.1 °F 38.4 °F 39.9 °F 92% 29.58 in 10.0 mi East 5.8 mph - 0.00 in   Overcast